Tunica, MS

7:05 AM CST on February 07, 2016 (GMT -0600)
Tunica

Weather History for KUTA - April, 2013

Change the Weather History Date:

Friday, April 19, 2013

  Actual Average (KMEM) Record (KMEM)
Temperature  
Mean Temperature 50 °F 64 °F  
Max Temperature 55 °F 74 °F 89 °F (2006)
Min Temperature 44 °F 54 °F 33 °F (1953)
Degree Days  
Heating Degree Days 16 4  
Month to date heating degree days 108  
Since 1 July heating degree days 2916  
Cooling Degree Days 0 3  
Month to date cooling degree days 39  
Year to date cooling degree days 59  
Moisture  
Dew Point 35 °F    
Average Humidity 62    
Maximum Humidity 87    
Minimum Humidity 44    
Precipitation  
Precipitation 0.00 in 0.19 in 3.26 in (1894)
Month to date precipitation 3.45  
Year to date precipitation 16.98  
Snow  
Snow 0.00 in 0.00 in - ()
Month to date snowfall 0.0  
Since 1 July snowfall 3.8  
Snow Depth -    
Sea Level Pressure  
Sea Level Pressure 30.06 in    
Wind  
Wind Speed 13 mph (West)    
Max Wind Speed 18 mph    
Max Gust Speed 23 mph    
Visibility 10 miles    
Events      
T = Trace of Precipitation, MM = Missing Value Source: NWS Daily Summary

Daily Weather History Graph

Daily Weather History Graph

Search for Another Location

Airport or City:

Trip Planner

Search our weather history database for the weather conditions in past years. The results will help you decide how hot, cold, wet, or windy it might be!

Date:

Astronomy

Apr. 19, 2013 Rise Set
Actual Time 6:24 AM CDT 7:36 PM CDT
Civil Twilight 5:58 AM CDT 8:03 PM CDT
Nautical Twilight 5:27 AM CDT 8:34 PM CDT
Astronomical Twilight 4:54 AM CDT 9:06 PM CDT
Moon 1:36 PM CDT (4/19) 2:24 AM CDT (4/19)
Length of Visible Light 14h 04m
Length of Day
13h 12m
First Quarter, 62% of the Moon is Illuminated
Apr 19
First Quarter
Apr 25
Full
May 2
Last Quarter
May 9
New
May 17
First Quarter

Hourly Weather History & Observations

Time (CDT) Temp. Windchill Dew Point Humidity Pressure Visibility Wind Dir Wind Speed Gust Speed Precip Events Conditions
12:15 AM 46.4 °F 39.5 °F 42.8 °F 87% 29.91 in 10.0 mi NW 17.3 mph 20.7 mph N/A   Overcast
12:35 AM 46.4 °F 39.5 °F 41.0 °F 81% 29.92 in 10.0 mi NW 17.3 mph 23.0 mph N/A   Overcast
12:55 AM 46.4 °F 39.2 °F 41.0 °F 81% 29.93 in 10.0 mi WNW 18.4 mph - N/A   Overcast
1:15 AM 46.4 °F 40.7 °F 41.0 °F 81% 29.93 in 10.0 mi WNW 12.7 mph 21.9 mph N/A   Overcast
1:35 AM 44.6 °F 37.8 °F 39.2 °F 81% 29.93 in 10.0 mi WNW 15.0 mph 21.9 mph N/A   Overcast
1:55 AM 44.6 °F 38.1 °F 37.4 °F 76% 29.94 in 10.0 mi NW 13.8 mph 23.0 mph N/A   Overcast
2:15 AM 44.6 °F 36.9 °F 37.4 °F 76% 29.94 in 10.0 mi WNW 18.4 mph - N/A   Overcast
2:35 AM 44.6 °F 38.1 °F 35.6 °F 71% 29.95 in 10.0 mi WNW 13.8 mph - N/A   Overcast
2:55 AM 44.6 °F 38.4 °F 35.6 °F 71% 29.95 in 10.0 mi WNW 12.7 mph - N/A   Overcast
3:15 AM 44.6 °F 38.4 °F 35.6 °F 71% 29.95 in 10.0 mi WNW 12.7 mph - N/A   Overcast
3:35 AM 44.6 °F 38.4 °F 35.6 °F 71% 29.96 in 10.0 mi NW 12.7 mph - N/A   Overcast
3:55 AM 44.6 °F 37.8 °F 33.8 °F 66% 29.96 in 10.0 mi NW 15.0 mph - N/A   Overcast
4:15 AM 44.6 °F 38.1 °F 33.8 °F 66% 29.96 in 10.0 mi NW 13.8 mph 21.9 mph N/A   Overcast
4:35 AM 44.6 °F 39.7 °F 35.6 °F 71% 29.95 in 10.0 mi WNW 9.2 mph - N/A   Overcast
4:55 AM 44.6 °F 40.2 °F 35.6 °F 71% 29.96 in 10.0 mi WNW 8.1 mph - N/A   Overcast
5:15 AM 44.6 °F 38.8 °F 33.8 °F 66% 29.98 in 10.0 mi West 11.5 mph 18.4 mph N/A   Overcast
5:35 AM 44.6 °F 38.1 °F 33.8 °F 66% 29.98 in 10.0 mi WNW 13.8 mph 21.9 mph N/A   Overcast
5:55 AM 44.6 °F 39.2 °F 33.8 °F 66% 30.00 in 10.0 mi WNW 10.4 mph - N/A   Overcast
6:15 AM 44.6 °F 39.2 °F 33.8 °F 66% 30.00 in 10.0 mi WNW 10.4 mph - N/A   Overcast
6:35 AM 44.6 °F 39.2 °F 33.8 °F 66% 30.02 in 10.0 mi WNW 10.4 mph - N/A   Overcast
6:55 AM 44.6 °F 40.7 °F 33.8 °F 66% 30.03 in 10.0 mi WNW 6.9 mph - N/A   Overcast
7:15 AM 44.6 °F 39.2 °F 33.8 °F 66% 30.03 in 10.0 mi WNW 10.4 mph - N/A   Overcast
7:35 AM 44.6 °F 38.8 °F 33.8 °F 66% 30.04 in 10.0 mi NW 11.5 mph - N/A   Overcast
7:55 AM 44.6 °F 39.2 °F 33.8 °F 66% 30.04 in 10.0 mi WNW 10.4 mph - N/A   Overcast
8:15 AM 44.6 °F 39.7 °F 33.8 °F 66% 30.04 in 10.0 mi WNW 9.2 mph - N/A   Overcast
8:35 AM 44.6 °F 38.1 °F 32.0 °F 61% 30.04 in 10.0 mi West 13.8 mph 19.6 mph N/A   Overcast
8:55 AM 44.6 °F 37.8 °F 32.0 °F 61% 30.05 in 10.0 mi WNW 15.0 mph 21.9 mph N/A   Overcast
9:35 AM 44.6 °F 37.8 °F 32.0 °F 61% 30.06 in 10.0 mi WNW 15.0 mph 20.7 mph N/A   Overcast
9:55 AM 44.6 °F 37.8 °F 32.0 °F 61% 30.08 in 10.0 mi WNW 15.0 mph 19.6 mph N/A   Overcast
10:15 AM 44.6 °F 36.9 °F 32.0 °F 61% 30.09 in 10.0 mi WNW 18.4 mph 21.9 mph N/A   Overcast
10:35 AM 44.6 °F 37.2 °F 32.0 °F 61% 30.11 in 10.0 mi WNW 17.3 mph - N/A   Overcast
10:55 AM 46.4 °F 41.5 °F 32.0 °F 57% 30.11 in 10.0 mi WNW 10.4 mph 15.0 mph N/A   Overcast
11:15 AM 48.2 °F - 32.0 °F 54% 30.11 in 10.0 mi WNW 16.1 mph 21.9 mph N/A   Mostly Cloudy
11:35 AM 48.2 °F - 32.0 °F 54% 30.09 in 10.0 mi NNW 11.5 mph - N/A   Scattered Clouds
11:55 AM 48.2 °F - 32.0 °F 54% 30.09 in 10.0 mi WNW 8.1 mph - N/A   Scattered Clouds
12:15 PM 48.2 °F - 32.0 °F 54% 30.09 in 10.0 mi WNW 10.4 mph - N/A   Scattered Clouds
12:35 PM 50.0 °F - 32.0 °F 50% 30.09 in 10.0 mi WNW 11.5 mph 18.4 mph N/A   Scattered Clouds
12:55 PM 51.8 °F - 33.8 °F 50% 30.09 in 10.0 mi WNW 16.1 mph 20.7 mph N/A   Scattered Clouds
1:15 PM 50.0 °F - 33.8 °F 54% 30.09 in 10.0 mi West 11.5 mph - N/A   Mostly Cloudy
1:35 PM 51.8 °F - 33.8 °F 50% 30.09 in 10.0 mi WNW 13.8 mph 19.6 mph N/A   Mostly Cloudy
1:55 PM 51.8 °F - 33.8 °F 50% 30.09 in 10.0 mi West 12.7 mph 17.3 mph N/A   Mostly Cloudy
2:15 PM 53.6 °F - 33.8 °F 47% 30.09 in 10.0 mi WSW 10.4 mph - N/A   Scattered Clouds
2:35 PM 51.8 °F - 33.8 °F 50% 30.10 in 10.0 mi WNW 13.8 mph 20.7 mph N/A   Scattered Clouds
2:55 PM 53.6 °F - 33.8 °F 47% 30.10 in 10.0 mi WNW 10.4 mph 18.4 mph N/A   Scattered Clouds
3:15 PM 53.6 °F - 35.6 °F 51% 30.09 in 10.0 mi WSW 12.7 mph 18.4 mph N/A   Scattered Clouds
3:35 PM 53.6 °F - 33.8 °F 47% 30.08 in 10.0 mi West 13.8 mph 18.4 mph N/A   Mostly Cloudy
3:55 PM 53.6 °F - 32.0 °F 44% 30.08 in 10.0 mi West 8.1 mph 18.4 mph N/A   Scattered Clouds
4:15 PM 55.4 °F - 33.8 °F 44% 30.08 in 10.0 mi West 13.8 mph 18.4 mph N/A   Scattered Clouds
4:35 PM 55.4 °F - 33.8 °F 44% 30.08 in 10.0 mi West 12.7 mph 18.4 mph N/A   Scattered Clouds
4:55 PM 53.6 °F - 32.0 °F 44% 30.08 in 10.0 mi West 9.2 mph 19.6 mph N/A   Scattered Clouds
5:15 PM 55.4 °F - 33.8 °F 44% 30.08 in 10.0 mi WSW 13.8 mph - N/A   Scattered Clouds
5:35 PM 55.4 °F - 33.8 °F 44% 30.08 in 10.0 mi West 10.4 mph - N/A   Scattered Clouds
5:55 PM 55.4 °F - 33.8 °F 44% 30.08 in 10.0 mi West 9.2 mph - N/A   Scattered Clouds
6:15 PM 53.6 °F - 33.8 °F 47% 30.08 in 10.0 mi WNW 9.2 mph 17.3 mph N/A   Clear
6:35 PM 53.6 °F - 33.8 °F 47% 30.08 in 10.0 mi West 8.1 mph - N/A   Clear
6:55 PM 53.6 °F - 33.8 °F 47% 30.09 in 10.0 mi West 10.4 mph - N/A   Clear
7:15 PM 53.6 °F - 37.4 °F 54% 30.10 in 10.0 mi WSW 6.9 mph - N/A   Clear
7:35 PM 51.8 °F - 37.4 °F 58% 30.10 in 10.0 mi West 4.6 mph - N/A   Clear
7:55 PM 50.0 °F - 39.2 °F 66% 30.11 in 10.0 mi WSW 5.8 mph - N/A   Clear
8:15 PM 50.0 °F - 37.4 °F 62% 30.11 in 10.0 mi WSW 8.1 mph - N/A   Clear
8:35 PM 48.2 °F - 39.2 °F 71% 30.12 in 10.0 mi WSW 5.8 mph - N/A   Clear
8:55 PM 48.2 °F - 37.4 °F 66% 30.13 in 10.0 mi WSW 6.9 mph - N/A   Clear
9:15 PM 46.4 °F 44.3 °F 39.2 °F 76% 30.14 in 10.0 mi WSW 4.6 mph - N/A   Clear
9:35 PM 46.4 °F 44.3 °F 39.2 °F 76% 30.16 in 10.0 mi WSW 4.6 mph - N/A   Clear
9:55 PM 46.4 °F 43.5 °F 39.2 °F 76% 30.16 in 10.0 mi WSW 5.8 mph - N/A   Clear
10:15 PM 46.4 °F 44.3 °F 37.4 °F 71% 30.16 in 10.0 mi WSW 4.6 mph - N/A   Clear
10:35 PM 46.4 °F 45.2 °F 39.2 °F 76% 30.16 in 10.0 mi SW 3.5 mph - N/A   Clear
10:55 PM 46.4 °F 45.2 °F 41.0 °F 81% 30.17 in 10.0 mi SW 3.5 mph - N/A   Clear
11:15 PM 46.4 °F 44.3 °F 41.0 °F 81% 30.17 in 10.0 mi SW 4.6 mph - N/A   Clear
11:35 PM 44.6 °F 43.1 °F 39.2 °F 81% 30.17 in 10.0 mi SSW 3.5 mph - N/A   Clear
11:55 PM 44.6 °F 42.2 °F 37.4 °F 76% 30.17 in 10.0 mi SSW 4.6 mph - N/A   Clear